Simultaneous Nadir Overpasses (SNOs) Predictions

Prediction of SNOs between GOES-17 and AQUA Satellite Orbit:

Table of predicted SNOs for the next 14.0 days since TLE Epoch: 2/14/2020
Index Date Time (GOES-17) GOES-17 Lat,Lon AQUA Lat,Lon Distance(km) Time Diff (sec)
1 02/15/2020 10:36:53 0.03,-137.21 -0.29,-135.68 173.90 80
2 02/15/2020 22:58:18 -0.04,-137.21 -0.79,-140.88 416.22 80
3 02/17/2020 22:46:07 -0.04,-137.20 -0.23,-137.91 81.78 80
4 02/19/2020 22:36:37 -0.05,-137.18 0.40,-134.96 252.29 80
5 02/20/2020 10:57:52 0.05,-137.17 0.69,-140.12 335.15 80
6 02/22/2020 10:45:43 0.05,-137.15 0.06,-137.16 1.72 80
7 02/24/2020 10:30:53 0.06,-137.12 -0.57,-134.21 331.53 80
8 02/24/2020 22:52:16 -0.06,-137.12 -0.55,-139.40 259.07 80
9 02/26/2020 22:42:46 -0.06,-137.09 0.10,-136.45 73.74 80




NCC Satellite Simultaneous Nadir Overpasses (SNOs) Prediction Service
